User: anonymous   Login
Location: Cutler
(25.6150°N, 80.3110°W)
Time: 09:55:53
(UTC-05:00)
Language:

Cosmos 2360 Rocket - Orbit

View from above orbital plane
View from above orbital plane
View from above satellite
View from above satellite

Ground track
Ground track

The orbit data is extracted from the following two-line orbital elements,

1 25407U 98045B   18016.95075319 -.00000285 +00000-0 -12064-3 0  9992
2 25407 071.0126 312.2113 0010045 247.6707 112.3352 14.15769103006171
Epoch (UTC): 16 January 2018 22:49:05
Eccentricity: 0.0010045
inclination: 71.0126°
perigee height: 832 km
apogee height: 847 km
right ascension of ascending node: 312.2113°
argument of perigee: 247.6707°
revolutions per day: 14.15769103
mean anomaly at epoch: 112.3352°
orbit number at epoch: 617

The dashed part of the orbit path shows where the satellite is in the earth's shadow,  

DLR